Location: ??????
(42.0089°N, 44.3281°E)
Time: 08:49:37
(UTC+00:00)

YAOGAN 1 - Pass Details

Date: 03 June 2022
Orbit: 617 x 619 km, 97.9° (Epoch: 30 June)

Event Time Altitude Azimuth Distance (km) Brightness Sun altitude
Rises 17:16:16 0° 218° (SW) 2,883 6.0 -7.3°
Reaches altitude 10° 17:20:10 10° 254° (WSW) 1,985 5.7 -7.9°
Maximum altitude 17:21:22 11° 271° (W) 1,920 5.9 -8.1°
Drops below altitude 10° 17:22:35 10° 287° (WNW) 1,989 6.4 -8.2°
Sets 17:26:32 0° 324° (NW) 2,902 7.9 -8.8°
